Regional Weather Roundup
Issued by NWS

Home | Current Version | Previous Version | Graphics & Text | Print | Product List | Glossary On
Versions: 1 2 3 4 5 6 7 8 9 10 11 12 13 14 15 16 17 18 19 20 21 22 23 24 25 26 27 28 29 30 31 32 33 34 35 36 37 38 39 40 41 42 43 44 45 46 47 48 49 50
000
ASUS43 KMPX 242001
RWRMN
WEATHER ROUNDUP FOR MINNESOTA
NATIONAL WEATHER SERVICE TWIN CITIES/CHANHASSEN MN
300 PM CDT MON JUL 24 2017


NOTE: "FAIR" INDICATES FEW OR NO CLOUDS BELOW 12,000 FEET WITH NO
SIGNIFICANT WEATHER AND/OR OBSTRUCTIONS TO VISIBILITY. N/A MEANS
CURRENT SKY AND/OR WEATHER CONDITIONS ARE NOT AVAILABLE.

MNZ060>063-068>070-242100-
   Twin Cities Metro

CITY           SKY/WX    TMP DP  RH WIND       PRES   REMARKS
TWIN CITIES    CLOUDY    76  60  57 E9        30.03F
ST PAUL        CLOUDY    76  61  59 S10       30.04F
CRYSTAL        MOSUNNY   76  56  49 SE12      30.01F
BLAINE         PTSUNNY   77  61  57 SE9       30.03F
LAKEVILLE      PTSUNNY   73  61  64 E8        30.04F
EDEN PRAIRIE   PTSUNNY   76  60  57 S12G17    30.02F
SOUTH ST PAUL  CLOUDY    75  58  55 SE5       30.03F
LAKE ELMO      FAIR      73  61  64 SE7       30.05F
$$
MNZ001>005-007-008-013>017-022>024-027-028-242100-
   Northwest Minnesota

CITY           SKY/WX    TMP DP  RH WIND       PRES   REMARKS
BEMIDJI        CLOUDY    75  56  52 S9        29.99S
HALLOCK        SUNNY     81  64  57 S20G26    29.88S
ROSEAU         SUNNY     81  64  57 S17       29.92F
WARROAD        MOSUNNY   79  66  65 SE13      29.94S
CROOKSTON      CLOUDY    77  64  65 S15       29.92F
FOSSTON        CLOUDY    75  61  60 S9        29.97S
DETROIT LAKES  MOSUNNY   75  61  60 S9G16     29.99F
MOORHEAD       MOSUNNY   79  61  53 S15       29.95F
PARK RAPIDS    MOSUNNY   77  56  48 SE13      30.00S
MAHNOMEN       FAIR      77  61  58 S10G17    29.96F
$$
MNZ006-009>011-018-025>026-242100-
   North Central Minnesota

CITY           SKY/WX    TMP DP  RH WIND       PRES   REMARKS
BAUDETTE       SUNNY     79  58  48 S13       29.96F
FLAG ISLAND    SUNNY     75  63  64 S15       29.93F
INTL FALLS     SUNNY     78  52  40 VRB7      29.99F
WASKISH        PTSUNNY   79  59  50 S6        29.97F
BIG FORK       SUNNY     79  57  47 SE8       30.01F
LONGVILLE      CLOUDY    75  55  50 SE8       30.02S
GRAND RAPIDS   SUNNY     74  58  57 S9        30.04F
CRANE LAKE     SUNNY     75  52  43 S9        30.03S
ORR            SUNNY     77  48  36 SE8G16    30.00F
COOK           SUNNY     75  54  46 SE8G16    30.04S
WALKER         FAIR      74  57  55 SE8       30.00S
$$
MNZ012-019>021-037-242100-
   Northeast Minnesota

CITY           SKY/WX    TMP DP  RH WIND       PRES   REMARKS
DULUTH         SUNNY     72  55  55 SE9       30.06S
ELY            SUNNY     75  48  38 S12       30.04F
HIBBING        SUNNY     74  51  44 SE9       30.04F
EVELETH        SUNNY     78  39  25 S10       30.05F
DULUTH HARBOR  SUNNY     64  61  88 E6        30.07S
TWO HARBORS    SUNNY     75  61  60 SE6       30.05S
GRAND MARAIS     N/A     56  56 100 SW9       30.07F
G MARAIS ARPRT SUNNY     72  48  43 S7        30.10S
$$
MNZ029>031-032-039>041-046>048-054>057-064-242100-
   West Central Minnesota

CITY           SKY/WX    TMP DP  RH WIND       PRES   REMARKS
FERGUS FALLS   MOSUNNY   75  63  64 S12       29.97S
WHEATON        CLOUDY    75  63  64 SE13G18   29.98R
MORRIS         MOSUNNY   79  61  53 SE12G20   29.96F
ALEXANDRIA     SUNNY     75  60  59 SE10      30.01F
ELBOW LAKE     FAIR      75  63  66 SE12G18   29.99S
WADENA         MOSUNNY   75  55  50 S13       30.01R
GLENWOOD       SUNNY     75  59  57 SE8       30.02S
APPLETON       MOSUNNY   81  61  50 S13       29.98R
BENSON         CLOUDY    79  61  53 S9G16     30.00S
ORTONVILLE     MOSUNNY   79  63  57 SE10      29.97R
MADISON        MOSUNNY   82  64  54 SE13      29.98R
WILLMAR        FAIR      79  63  57 SE12      30.02S
$$
MNZ033>034-036-042>043-049>051-058-059-242100-
   Central Minnesota

CITY           SKY/WX    TMP DP  RH WIND       PRES   REMARKS
ST CLOUD       MOSUNNY   75  61  61 SE8G18    30.02F
SAUK CENTRE    MOCLDY    75  62  62 SE8       30.02S
PAYNESVILLE    SUNNY     76  59  54 S9        30.03S
AITKIN         CLOUDY    73  61  64 S9        30.02F
PINE RIVER     CLOUDY    73  61  64 SE9       30.05R
BRAINERD       CLOUDY    73  59  61 SE9       30.02F
STAPLES        SUNNY     73  57  56 SE10      30.01S
LONG PRAIRIE   PTSUNNY   72  61  68 E12G17    30.03R
LITTLE FALLS   CLOUDY    72  59  64 SE8       30.03S
LITCHFIELD     MOSUNNY   79  63  57 SE6       30.02F
BUFFALO        MOSUNNY   76  58  53 SE7       30.04S
MAPLE LAKE     MOSUNNY   78  63  59 SE6       30.04S
HUTCHINSON     MOSUNNY   76  64  65 E10       30.03F
$$
MNZ037-044-045-052-053-242100-
   East Central Minnesota

CITY           SKY/WX    TMP DP  RH WIND       PRES   REMARKS
PRINCETON      MOSUNNY   79  61  53 SE8       30.03F
MORA           PTSUNNY   73  59  60 SW6       30.06F
CAMBRIDGE      CLOUDY    79  61  53 S12       30.02F
RUSH CITY      CLOUDY    74  59  58 S6        30.04F HAZE
MOOSE LAKE     SUNNY     73  55  53 CALM      30.03F
HINCKLEY       MOCLDY    73  61  64 E5        30.05F
CLOQUET        SUNNY     73  48  40 SE7       30.06S
MCGREGOR       MOSUNNY   73  59  60 SE8       30.04F
$$
MNZ071>073-080-081-089-090-097-098-242100-
   Southwest Minnesota

CITY           SKY/WX    TMP DP  RH WIND       PRES   REMARKS
MONTEVIDEO     SUNNY     82  63  51 S12       29.99S
GRANITE FALLS  MOSUNNY   79  63  57 SE10      30.00F
CANBY          MOSUNNY   81  62  50 SE14      29.99R
REDWOOD FALLS  MOSUNNY   78  61  55 SE15      30.00F
OLIVIA         SUNNY     77  61  57 SE9       30.00F
PIPESTONE      SUNNY     79  63  57 S13       29.99F
WINDOM         SUNNY     77  61  57 SE9       30.02S
WORTHINGTON    MOSUNNY   78  63  59 MISG      30.01F
JACKSON        MOSUNNY   77  61  57 E10       30.03F
TRACY          MOSUNNY   78  65  64 SE13      30.01S
SLAYTON        SUNNY     76  62  60 SE8G16    30.02S
$$
MNZ065>067-074>077-082>085-091>093-242100-
   South Central Minnesota

CITY           SKY/WX    TMP DP  RH WIND       PRES   REMARKS
MANKATO        PTSUNNY   74  61  63 SE9       30.04S
NEW ULM        MOSUNNY   73  61  64 SE10      30.02S
ST JAMES       PTSUNNY   75  63  64 E9        30.03F
FAIRMONT       PTSUNNY   77  62  59 SE12      30.03S
GLENCOE        MOSUNNY   76  64  65 SE7       30.03R
FARIBAULT      PTSUNNY   73  61  64 SE10      30.04F
OWATONNA       PTSUNNY   75  61  60 SE9       30.04F
WASECA         PTSUNNY   72  59  64 E7        30.05F
ALBERT LEA     CLOUDY    73  61  64 S9        30.05S
$$
MNZ078>079-086>088-094>096-242100-
   Southeast Minnesota

CITY           SKY/WX    TMP DP  RH WIND       PRES   REMARKS
ROCHESTER      CLOUDY    71  61  70 E7        30.06F
RED WING       CLOUDY    75  54  46 SE8       30.04S
STANTON        CLOUDY    75  60  58 E3        30.03F
DODGE CENTER   PTSUNNY   72  61  68 SE6       30.06F
WINONA         SUNNY     72  59  64 SE6       30.07S
AUSTIN         CLOUDY    73  61  64 SE10      30.05S
PRESTON        MOSUNNY   71  58  63 SE7       30.07F
$$
ABBREVIATIONS USED IN REMARKS
   TC - TEMPERATURES IN CELSIUS
  WCI - WIND CHILL INDEX
   HX - HEAT INDEX
  VSB - VISIBILITY
$$



USA.gov is the U.S. government's official web portal to all federal, state and local government web resources and services.